Talkeetna, AK

8:44 AM AKDT on April 29, 2017 (GMT -0800)
Talkeetna

Weather History for PATK - October, 2012

Change the Weather History Date:

Friday, October 26, 2012

  Actual Average Record
Temperature  
Mean Temperature 23 °F -  
Max Temperature 34 °F 33 °F 52 °F (1949)
Min Temperature 12 °F 14 °F -10 °F (1982)
Degree Days  
Heating Degree Days 42    
Moisture  
Dew Point 10 °F    
Average Humidity 63    
Maximum Humidity 81    
Minimum Humidity 21    
Precipitation  
Precipitation 0.00 in - - ()
Sea Level Pressure  
Sea Level Pressure 30.38 in    
Wind  
Wind Speed 1 mph (North)    
Max Wind Speed 6 mph    
Max Gust Speed -    
Visibility 10 miles    
Events      
Averages and records for this station are not official NWS values.
T = Trace of Precipitation, MM = Missing Value Source: NWS Daily Summary

Daily Weather History Graph

Daily Weather History Graph

Search for Another Location

Airport or City:

Trip Planner

Search our weather history database for the weather conditions in past years. The results will help you decide how hot, cold, wet, or windy it might be!

Date:

Astronomy

Oct. 26, 2012 Rise Set
Actual Time 9:18 AM AKDT 6:08 PM AKDT
Civil Twilight 8:30 AM AKDT 6:56 PM AKDT
Nautical Twilight 7:37 AM AKDT 7:49 PM AKDT
Astronomical Twilight 6:45 AM AKDT 8:41 PM AKDT
Moon 5:03 PM AKDT (10/26) 5:42 AM AKDT (10/26)
Length of Visible Light 10h 26m
Length of Day
8h 50m
Waxing Gibbous, 92% of the Moon is Illuminated
Oct 26
Waxing Gibbous
Oct 29
Full
Nov 6
Last Quarter
Nov 13
New
Nov 20
First Quarter

Hourly Weather History & Observations

Time (AKDT) Temp. Windchill Dew Point Humidity Pressure Visibility Wind Dir Wind Speed Gust Speed Precip Events Conditions
12:53 AM 16.0 °F 10.4 °F 10.0 °F 77% 30.49 in 10.0 mi NE 3.5 mph - N/A   Clear
1:53 AM 17.1 °F - 9.0 °F 71% 30.48 in 10.0 mi Calm Calm - N/A   Clear
2:53 AM 17.1 °F - 10.0 °F 74% 30.48 in 10.0 mi Calm Calm - N/A   Clear
3:53 AM 14.0 °F - 9.0 °F 80% 30.48 in 10.0 mi Calm Calm - N/A   Clear
4:53 AM 14.0 °F - 9.0 °F 80% 30.47 in 10.0 mi Calm Calm - N/A   Clear
5:53 AM 16.0 °F - 10.9 °F 81% 30.47 in 10.0 mi Calm Calm - N/A   Clear
6:53 AM 18.0 °F 12.7 °F 10.9 °F 74% 30.45 in 10.0 mi Variable 3.5 mph - N/A   Clear
7:53 AM 16.0 °F - 10.0 °F 77% 30.44 in 10.0 mi Calm Calm - N/A   Scattered Clouds
8:53 AM 17.1 °F - 9.0 °F 71% 30.43 in 10.0 mi Calm Calm - N/A   Scattered Clouds
9:53 AM 17.1 °F - 10.0 °F 74% 30.43 in 10.0 mi Calm Calm - N/A   Mostly Cloudy
10:53 AM 23.0 °F - 9.0 °F 55% 30.41 in 10.0 mi Calm Calm - N/A   Scattered Clouds
11:53 AM 25.0 °F 18.1 °F 8.1 °F 49% 30.40 in 10.0 mi NNE 5.8 mph - N/A   Partly Cloudy
12:53 PM 28.0 °F 21.7 °F 8.1 °F 43% 30.40 in 10.0 mi NE 5.8 mph - N/A   Clear
1:53 PM 30.9 °F - 8.1 °F 38% 30.38 in 10.0 mi Calm Calm - N/A   Partly Cloudy
2:53 PM 32.0 °F 28.7 °F 9.0 °F 38% 30.36 in 10.0 mi NW 3.5 mph - N/A   Scattered Clouds
3:53 PM 33.1 °F 30.0 °F 8.1 °F 35% 30.34 in 10.0 mi NW 3.5 mph - N/A   Scattered Clouds
4:53 PM 34.0 °F - 8.1 °F 34% 30.32 in 10.0 mi Calm Calm - N/A   Scattered Clouds
5:53 PM 30.0 °F - 12.0 °F 47% 30.30 in 10.0 mi Calm Calm - N/A   Clear
6:53 PM 26.1 °F - 12.0 °F 55% 30.29 in 10.0 mi Calm Calm - N/A   Clear
7:53 PM 21.0 °F - 12.9 °F 71% 30.28 in 10.0 mi Calm Calm - N/A   Clear
8:53 PM 18.0 °F - 10.0 °F 71% 30.27 in 10.0 mi Calm Calm - N/A   Clear
9:53 PM 17.1 °F - 10.0 °F 74% 30.25 in 10.0 mi Calm Calm - N/A   Clear
10:53 PM 16.0 °F - 10.9 °F 81% 30.22 in 8.0 mi Calm Calm - N/A   Clear
11:53 PM 15.1 °F - 10.0 °F 80% 30.22 in 10.0 mi Calm Calm - N/A   Clear